Flag for U.S.A. Weather past 2 weeks in Dover, Delaware, U.S.A.

Now
75 °F

Sunny.


Feels Like: 78 °F
Forecast: 55 / 74 °F
Wind: 10 mph from Southeast

Location: Dover Air Force Base

Current Time: Apr 18, 2015 at 4:13:19 PM

Latest Report: Apr 18, 2015 at 3:58 PM


Visibility: 10 mi

Pressure: 29.91 "Hg

Humidity: 48%

Dew point: 53 °F

Location of DoverLocation

Historic Weather in Dover — Graph

°F

Dover temperature yesterday

Maximum temperature yesterday: 75 °F (at 4:58 PM)
Minimum temperature yesterday: 54 °F (at 5:03 AM)
Average temperature yesterday: 62 °F

Past Weeks' High & Low Weather Summary

 TemperatureHumidityPressure
High76 °F (Apr 13, 3:58 PM)100% (Apr 3, 6:58 PM)30.43 "Hg (Apr 3, 6:58 PM)
Low38 °F (Apr 12, 5:58 AM)23% (Apr 5, 4:58 PM)29.54 "Hg (Apr 4, 2:58 AM)
Average55 °F76%30.12 "Hg
* Reported Apr 3 2:58 PM — Apr 18 2:58 PM, Dover, Weather by CustomWeather, © 2015

Note: Actual official high and low records may vary slightly from our data, if they occured in-between our weather recording intervals... More about our weather records

Advertising

Dover weather history for previous 24 hours

 ConditionsComfort  
Time TempWeatherWind HumidityBarometerVisibility
2:58 PM
Sat, Apr 18
74 °FSunny.7 mph48%29.94 "Hg10 mi
1:58 PM74 °FSunny.6 mph45%29.96 "Hg10 mi
12:58 PM74 °FSunny.5 mph44%29.98 "Hg10 mi
11:58 AM72 °FSunny.3 mph44%30.00 "Hg10 mi
10:58 AM69 °FSunny.7 mph53%30.01 "Hg10 mi
9:58 AM67 °FSunny.7 mph58%30.01 "Hg10 mi
8:58 AM65 °FSunny.7 mph73%30.00 "Hg10 mi
7:58 AM59 °FSunny.5 mph100%30.00 "Hg10 mi
6:58 AM55 °FClear.7 mph100%29.97 "Hg10 mi
5:58 AM55 °FClear.6 mph100%29.94 "Hg10 mi
4:58 AM57 °FFog.2 mph100%29.92 "Hg7 mi
4:03 AM57 °FClear.2 mph100%29.92 "Hg10 mi
3:58 AM58 °FClear.2 mph100%29.93 "Hg9 mi
3:03 AM57 °FClear.1 mph100%29.93 "Hg9 mi
2:03 AM59 °FClear.2 mph100%29.93 "Hg9 mi
1:58 AM58 °FClear.3 mph100%29.94 "Hg10 mi
12:58 AM60 °FClear.1 mph100%29.95 "Hg10 mi
11:58 PM
Fri, Apr 17
60 °FPassing clouds.3 mph100%29.95 "Hg10 mi
10:58 PM62 °FPassing clouds.No wind99%29.95 "Hg10 mi
9:58 PM61 °FClear.3 mph95%29.95 "Hg10 mi
8:58 PM67 °FPassing clouds.2 mph86%29.94 "Hg10 mi
7:58 PM70 °FPartly sunny.6 mph70%29.93 "Hg10 mi
6:58 PM73 °FPassing clouds.5 mph64%29.91 "Hg10 mi
5:58 PM75 °FPassing clouds.6 mph62%29.91 "Hg10 mi
4:58 PM75 °FPassing clouds.12 mph62%29.92 "Hg10 mi
Weather by CustomWeather, © 2015

See weather overviewHow to use our weather pages